When you browse on this site, cookies collect data to enhance your experience and personalize the content and advertising you see.
Visit our Privacy Policy to learn more. By continuing to use the site, you agree to this use of cookies and data.

Hourly Weather Dinagepoor

Today, 15 July, Wednesday

Time Temperature Precipitation Wind Pressure Humidity
00:00 +32°C° 0 mm 4 mps 750 mmHg 80%
01:00 +30°C° 0 mm 3 mps 749 mmHg 82%
02:00 +30°C° 0 mm 3 mps 749 mmHg 83%
03:00 +30°C° 0 mm 3 mps 748 mmHg 84%
04:00 +30°C° 1.2 mm 3 mps 748 mmHg 85%
05:00 +29°C° 1.2 mm 4 mps 749 mmHg 87%
06:00 +29°C° 0 mm 4 mps 749 mmHg 86%
07:00 +30°C° 0.2 mm 4 mps 749 mmHg 83%
08:00 +32°C° 0.2 mm 4 mps 749 mmHg 79%
09:00 +32°C° 0.2 mm 4 mps 750 mmHg 76%
10:00 +34°C° 0.1 mm 4 mps 749 mmHg 70%
11:00 +35°C° 0.1 mm 4 mps 749 mmHg 64%
12:00 +37°C° 0.1 mm 4 mps 749 mmHg 58%
13:00 +37°C° 0.3 mm 4 mps 748 mmHg 58%
14:00 +37°C° 0.3 mm 4 mps 748 mmHg 58%
15:00 +37°C° 0.3 mm 4 mps 747 mmHg 59%
16:00 +36°C° 1.6 mm 4 mps 747 mmHg 62%
17:00 +35°C° 1.6 mm 3 mps 747 mmHg 65%
18:00 +35°C° 1.6 mm 3 mps 747 mmHg 69%
19:00 +34°C° 1.2 mm 3 mps 747 mmHg 72%
20:00 +33°C° 1.2 mm 3 mps 748 mmHg 75%
21:00 +33°C° 1.2 mm 3 mps 748 mmHg 78%
22:00 +32°C° 0.7 mm 4 mps 748 mmHg 79%
23:00 +32°C° 0.7 mm 4 mps 749 mmHg 80%

Tomorrow, 16 July, Thursday

Time Temperature Precipitation Wind Pressure Humidity
00:00 +32°C° 0.7 mm 5 mps 749 mmHg 81%
01:00 +30°C° 0.1 mm 4 mps 749 mmHg 82%
02:00 +30°C° 0.1 mm 4 mps 748 mmHg 83%
03:00 +30°C° 0.1 mm 4 mps 748 mmHg 84%
04:00 +29°C° 0 mm 3 mps 748 mmHg 85%
05:00 +29°C° 0 mm 3 mps 748 mmHg 86%
06:00 +29°C° 0 mm 3 mps 748 mmHg 88%
07:00 +30°C° 0 mm 3 mps 748 mmHg 83%
08:00 +31°C° 0 mm 3 mps 748 mmHg 79%
09:00 +33°C° 0 mm 4 mps 749 mmHg 74%
10:00 +34°C° 0.1 mm 4 mps 749 mmHg 69%
11:00 +35°C° 0.1 mm 3 mps 748 mmHg 65%
12:00 +36°C° 0.1 mm 3 mps 748 mmHg 60%
13:00 +36°C° 0.2 mm 3 mps 747 mmHg 59%
14:00 +37°C° 0.2 mm 3 mps 747 mmHg 58%
15:00 +37°C° 0.2 mm 3 mps 746 mmHg 56%
16:00 +37°C° 0.5 mm 4 mps 746 mmHg 59%
17:00 +36°C° 0.5 mm 4 mps 746 mmHg 62%
18:00 +35°C° 0.5 mm 4 mps 746 mmHg 65%
19:00 +35°C° 1.2 mm 4 mps 746 mmHg 69%
20:00 +34°C° 1.2 mm 4 mps 747 mmHg 73%
21:00 +33°C° 1.2 mm 4 mps 747 mmHg 77%
22:00 +32°C° 1.5 mm 4 mps 748 mmHg 78%
23:00 +32°C° 1.5 mm 5 mps 748 mmHg 79%

Day after tomorrow, 17 July, Friday

Time Temperature Precipitation Wind Pressure Humidity
00:00 +32°C° 1.5 mm 5 mps 748 mmHg 80%
01:00 +30°C° 0.4 mm 5 mps 748 mmHg 81%
02:00 +30°C° 0.4 mm 5 mps 748 mmHg 82%
03:00 +30°C° 0.4 mm 4 mps 748 mmHg 84%
04:00 +30°C° 0 mm 4 mps 748 mmHg 85%
05:00 +29°C° 0 mm 3 mps 748 mmHg 86%
06:00 +29°C° 0 mm 3 mps 748 mmHg 87%
07:00 +30°C° 0 mm 3 mps 748 mmHg 82%
08:00 +31°C° 0 mm 3 mps 749 mmHg 78%
09:00 +33°C° 0 mm 4 mps 749 mmHg 73%
10:00 +34°C° 0.1 mm 3 mps 749 mmHg 69%
11:00 +35°C° 0.1 mm 3 mps 749 mmHg 64%
12:00 +36°C° 0.1 mm 3 mps 749 mmHg 60%
13:00 +36°C° 0.8 mm 3 mps 748 mmHg 59%
14:00 +36°C° 0.8 mm 3 mps 748 mmHg 58%
15:00 +37°C° 0.8 mm 3 mps 747 mmHg 57%
16:00 +36°C° 0.1 mm 3 mps 747 mmHg 59%
17:00 +36°C° 0.1 mm 3 mps 747 mmHg 60%
18:00 +36°C° 0.1 mm 3 mps 747 mmHg 61%
19:00 +35°C° 0.3 mm 3 mps 747 mmHg 66%
20:00 +34°C° 0.3 mm 3 mps 748 mmHg 71%
21:00 +33°C° 0.3 mm 3 mps 748 mmHg 76%
22:00 +33°C° 0.8 mm 3 mps 749 mmHg 77%
23:00 +31°C° 0.8 mm 3 mps 749 mmHg 78%

18 July, Saturday

Time Temperature Precipitation Wind Pressure Humidity
00:00 +31°C° 0.8 mm 3 mps 749 mmHg 80%
01:00 +31°C° 0.3 mm 3 mps 749 mmHg 81%
02:00 +30°C° 0.3 mm 3 mps 748 mmHg 83%
03:00 +30°C° 0.3 mm 3 mps 748 mmHg 85%
04:00 +30°C° 0.7 mm 3 mps 748 mmHg 85%
05:00 +30°C° 0.7 mm 3 mps 748 mmHg 86%
06:00 +29°C° 0.7 mm 3 mps 749 mmHg 86%
07:00 +31°C° 0.6 mm 3 mps 749 mmHg 81%
08:00 +33°C° 0.6 mm 3 mps 749 mmHg 76%
09:00 +34°C° 0.6 mm 3 mps 749 mmHg 71%
10:00 +35°C° 0.4 mm 3 mps 749 mmHg 66%
11:00 +36°C° 0.4 mm 3 mps 749 mmHg 61%
12:00 +37°C° 0.4 mm 3 mps 749 mmHg 56%
13:00 +37°C° 0.2 mm 3 mps 748 mmHg 56%
14:00 +37°C° 0.2 mm 3 mps 748 mmHg 56%
15:00 +37°C° 0.2 mm 3 mps 747 mmHg 56%
16:00 +36°C° 0.5 mm 3 mps 747 mmHg 59%
17:00 +36°C° 0.5 mm 3 mps 747 mmHg 62%
18:00 +35°C° 0.5 mm 4 mps 747 mmHg 65%
19:00 +34°C° 0.3 mm 4 mps 748 mmHg 70%
20:00 +33°C° 0.3 mm 4 mps 748 mmHg 75%
21:00 +31°C° 0.3 mm 3 mps 749 mmHg 80%
22:00 +31°C° 0.8 mm 3 mps 749 mmHg 81%
23:00 +31°C° 0.8 mm 3 mps 749 mmHg 83%

19 July, Sunday

Time Temperature Precipitation Wind Pressure Humidity
00:00 +31°C° 0.8 mm 3 mps 749 mmHg 84%
01:00 +30°C° 1.2 mm 3 mps 748 mmHg 85%
02:00 +30°C° 1.2 mm 3 mps 748 mmHg 86%
03:00 +30°C° 1.2 mm 3 mps 748 mmHg 86%
04:00 +30°C° 1.6 mm 3 mps 748 mmHg 86%
05:00 +30°C° 1.6 mm 3 mps 748 mmHg 87%
06:00 +29°C° 1.6 mm 3 mps 748 mmHg 87%
07:00 +30°C° 1.3 mm 3 mps 748 mmHg 85%
08:00 +31°C° 1.3 mm 3 mps 748 mmHg 83%
09:00 +31°C° 1.3 mm 3 mps 748 mmHg 81%
10:00 +33°C° 0.5 mm 3 mps 748 mmHg 74%
11:00 +35°C° 0.5 mm 3 mps 748 mmHg 67%
12:00 +36°C° 0.5 mm 2 mps 748 mmHg 60%
13:00 +36°C° 0.6 mm 2 mps 747 mmHg 60%
14:00 +36°C° 0.6 mm 2 mps 746 mmHg 61%
15:00 +36°C° 0.6 mm 2 mps 746 mmHg 61%
16:00 +36°C° 1.8 mm 2 mps 746 mmHg 64%
17:00 +35°C° 1.8 mm 2 mps 745 mmHg 68%
18:00 +35°C° 1.8 mm 2 mps 745 mmHg 71%
19:00 +34°C° 2.1 mm 3 mps 746 mmHg 74%
20:00 +33°C° 2.1 mm 3 mps 746 mmHg 77%
21:00 +32°C° 2.1 mm 4 mps 746 mmHg 80%
22:00 +32°C° 0.6 mm 4 mps 746 mmHg 82%
23:00 +30°C° 0.6 mm 4 mps 746 mmHg 84%

20 July, Monday

Time Temperature Precipitation Wind Pressure Humidity
00:00 +30°C° 0.6 mm 5 mps 746 mmHg 87%
01:00 +30°C° 1.7 mm 5 mps 746 mmHg 87%
02:00 +30°C° 1.7 mm 5 mps 746 mmHg 87%
03:00 +29°C° 1.7 mm 4 mps 745 mmHg 87%
04:00 +29°C° 2 mm 4 mps 745 mmHg 86%
05:00 +30°C° 2 mm 4 mps 745 mmHg 86%
06:00 +30°C° 2 mm 4 mps 745 mmHg 86%
07:00 +30°C° 1.9 mm 4 mps 745 mmHg 83%
08:00 +32°C° 1.9 mm 4 mps 746 mmHg 81%
09:00 +32°C° 1.9 mm 5 mps 746 mmHg 79%
10:00 +32°C° 2.7 mm 4 mps 746 mmHg 80%
11:00 +31°C° 2.7 mm 3 mps 746 mmHg 81%
12:00 +31°C° 2.7 mm 3 mps 746 mmHg 82%
13:00 +31°C° 0.5 mm 3 mps 746 mmHg 83%
14:00 +30°C° 0.5 mm 3 mps 745 mmHg 85%
15:00 +30°C° 0.5 mm 4 mps 745 mmHg 86%
16:00 +30°C° 0.7 mm 4 mps 745 mmHg 86%
17:00 +30°C° 0.7 mm 4 mps 745 mmHg 86%
18:00 +29°C° 0.7 mm 4 mps 745 mmHg 86%
19:00 +29°C° 0.2 mm 4 mps 746 mmHg 87%
20:00 +29°C° 0.2 mm 4 mps 746 mmHg 88%
21:00 +29°C° 0.2 mm 4 mps 747 mmHg 89%
22:00 +29°C° 1 mm 3 mps 747 mmHg 89%
23:00 +29°C° 1 mm 3 mps 747 mmHg 90%
Show more